This demonstration page uses our WeatherBlox Daily Observations layout. Learn more.

38.89511, -77.03637

Hourly Observations for December 2, 2018

Temp ( °F °C ) Dew Point ( °F °C ) Humidity (%) Winds ( mph kmh ) Pressure ( in mb ) Visibility ( mi km ) Precip ( " mm )
12:01 am 00:01 Cloudy with Light Rain 45 7.2 42 5.6 90 90 N 8 13 29.91 1013 2 3.218688 0.001 0.001
12:10 am 00:10 Cloudy with Light Rain 45 7.2 43 6.1 93 93 N 8 13 29.91 1013 3 4.828032 0.001 0.001
12:52 am 00:52 Cloudy with Light Rain 46 7.8 44 6.7 93 93 N 6 9 29.88 1012 4 6.437376 0.01 0.254
1:19 am 01:19 Cloudy with Light Rain 46 7.8 44 6.7 93 93 NNE 5 7 29.88 1012 1.5 2.414016 0.01 0.254
1:52 am 01:52 Cloudy with Light Rain 46 7.8 44 6.7 93 93 NE 8 13 29.85 1011 2.5 4.02336 0.04 1.016
2:48 am 02:48 Cloudy with Light Drizzle 46 8 45 7 93 93 NNW 5 7 29.85 1011 3 4.828032 0.01 0.254
2:52 am 02:52 Cloudy with Light Drizzle 47 8.3 44 6.7 90 90 N 6 9 29.83 1010 3 4.828032 0.01 0.254
3:33 am 03:33 Cloudy with Light Drizzle 47 8.3 45 7.2 93 93 N 5 7 29.8 1009 1.5 2.414016 0.01 0.254
3:49 am 03:49 Cloudy with Light Drizzle 46 8 45 7 93 93 NNW 5 7 29.8 1009 2.5 4.02336 0.02 0.508
3:52 am 03:52 Cloudy with Light Drizzle 47 8.3 45 7.2 93 93 NNW 6 9 29.8 1009 2.5 4.02336 0.02 0.508
3:57 am 03:57 Cloudy with Light Drizzle 47 8.3 45 7.2 93 93 N 6 9 29.8 1009 3 4.828032 0.001 0.001
4:05 am 04:05 Cloudy with Light Drizzle 47 8.3 45 7.2 93 93 NNW 6 9 29.8 1009 2.5 4.02336 0.001 0.001
4:47 am 04:47 Cloudy with Light Drizzle 46 8 45 7 93 93 NW 6 9 29.8 1009 2.5 4.02336 0.01 0.254
4:52 am 04:52 Cloudy with Light Drizzle 47 8.3 45 7.2 93 93 NNW 6 9 29.8 1009 2.5 4.02336 0.01 0.254
4:54 am 04:54 Cloudy with Light Drizzle 48 8.9 45 7.2 89 89 NNW 6 9 29.8 1009 3 4.828032 0.001 0.001
5:11 am 05:11 Cloudy with Light Drizzle 48 8.9 45 7.2 89 89 NNW 5 7 29.8 1009 3 4.828032 0.001 0.001
5:19 am 05:19 Cloudy with Light Drizzle 47 8.3 45 7.2 93 93 NNW 5 7 29.8 1009 2.5 4.02336 0.01 0.254
5:52 am 05:52 Cloudy with Light Drizzle 47 8.3 45 7.2 93 93 Calm 29.77 1008 2.5 4.02336 0.01 0.254
6:12 am 06:12 Cloudy with Light Drizzle 46 7.8 44 6.7 93 93 Calm 29.77 1008 4 6.437376 0.001 0.001
6:42 am 06:42 Cloudy with Mist and Fog 46 7.8 44 6.7 93 93 Calm 29.77 1008 3 4.828032 0.001 0.001
6:52 am 06:52 Cloudy with Mist and Fog 46 7.8 44 6.7 93 93 SSE 3 6 29.74 1007 3 4.828032 0.001 0.001
7:00 am 07:00 Cloudy with Mist and Fog 46 7.8 44 6.7 93 93 Calm 29.74 1007 4 6.437376 0 0
7:16 am 07:16 Cloudy with Mist and Fog 46 7.8 44 6.7 93 93 Calm 29.74 1007 1.25 2.01168 0 0
7:21 am 07:21 Cloudy with Mist and Fog 47 8.3 45 7.2 93 93 W 3 6 29.74 1007 3 4.828032 0 0
7:41 am 07:41 Cloudy 47 8.3 44 6.7 90 90 W 5 7 29.74 1007 10 16.09344 0 0
7:52 am 07:52 Cloudy 47 8.3 44 6.7 90 90 W 6 9 29.74 1007 10 16.09344 0 0
8:52 am 08:52 Cloudy with Mist and Fog 48 8.9 45 7.2 89 89 S 5 7 29.74 1007 5 8.04672 0 0
8:56 am 08:56 Cloudy with Mist and Fog 48 8.9 45 7.2 89 89 S 3 6 29.77 1008 2 3.218688 0 0
9:25 am 09:25 Cloudy with Mist and Fog 47 8.3 44 6.7 90 90 S 7 11 29.77 1008 1.25 2.01168 0 0
9:34 am 09:34 Mostly Cloudy with Fog 47 8.3 44 6.7 90 90 S 7 11 29.77 1008 0.5 0.804672 0 0
9:52 am 09:52 Cloudy with Mist and Fog 47 8.3 44 6.7 90 90 S 8 13 29.74 1007 0.75 1.207008 0 0
10:32 am 10:32 Cloudy with Mist and Fog 46 7.8 45 7.2 96 96 S 9 15 29.74 1007 1.75 2.816352 0 0
10:39 am 10:39 Cloudy with Mist and Fog 46 7.8 44 6.7 93 93 SSE 9 15 29.74 1007 2.5 4.02336 0 0
10:52 am 10:52 Cloudy with Mist and Fog 46 7.8 44 6.7 93 93 S 9 15 29.74 1007 2.5 4.02336 0 0
11:16 am 11:16 Cloudy with Mist and Fog 48 8.9 45 7.2 89 89 S 7 11 29.74 1007 4 6.437376 0 0
11:52 am 11:52 Cloudy with Mist and Fog 47 8.3 45 7.2 93 93 S 10 17 29.71 1006 4 6.437376 0 0
12:52 pm 12:52 Cloudy 51 10.6 49 9.4 92 92 S 10 17 29.68 1005 8 12.874752 0 0
1:52 pm 13:52 Cloudy 54 12.2 50 10 87 87 SSW 9 15 29.65 1004 10 16.09344 0 0
1:59 pm 13:59 Cloudy 54 12.2 50 10 87 87 SSW 9 15 29.68 1005 10 16.09344 0 0
2:42 pm 14:42 Cloudy 55 12.8 51 10.6 87 87 SSW 8 13 29.65 1004 10 16.09344 0 0
2:52 pm 14:52 Cloudy 55 12.8 51 10.6 87 87 SSW 8 13 29.62 1003 10 16.09344 0 0
3:52 pm 15:52 Cloudy 55 12.8 51 10.6 87 87 S 9 15 29.62 1003 10 16.09344 0 0
3:59 pm 15:59 Cloudy 54 12.2 50 10 87 87 S 9 15 29.62 1003 10 16.09344 0 0
4:17 pm 16:17 Cloudy with Light Drizzle 53 11.7 50 10 89 89 S 13 20 29.62 1003 4 6.437376 0.001 0.001
4:52 pm 16:52 Cloudy with Light Drizzle 54 12.2 52 11.1 93 93 S 12 19 29.62 1003 3 4.828032 0.001 0.001
5:25 pm 17:25 Cloudy 54 12.2 52 11.1 93 93 S 12 19 29.62 1003 7 11.265408 0.01 0.254
5:29 pm 17:29 Cloudy with Light Drizzle 53 11.7 51 10.6 93 93 S 13 20 29.62 1003 6 9.656064 0.01 0.254
5:52 pm 17:52 Cloudy with Mist and Fog 53 11.7 51 10.6 93 93 S 8 13 29.62 1003 6 9.656064 0.01 0.254
6:52 pm 18:52 Cloudy 53 11.7 51 10.6 93 93 S 9 15 29.62 1003 7 11.265408 0 0
7:52 pm 19:52 Cloudy with Mist and Fog 55 12.8 52 11.1 90 90 S 7 11 29.62 1003 5 8.04672 0 0
8:11 pm 20:11 Cloudy 55 12.8 53 11.7 93 93 S 8 13 29.65 1004 8 12.874752 0 0
8:52 pm 20:52 Mostly Cloudy with Mist and Fog 54 12.2 52 11.1 93 93 S 10 17 29.62 1003 6 9.656064 0 0
9:19 pm 21:19 Cloudy with Mist and Fog 54 12.2 52 11.1 93 93 S 12 19 29.65 1004 5 8.04672 0 0
9:32 pm 21:32 Cloudy with Mist and Fog 57 13.9 55 12.8 93 93 S 10 17 29.65 1004 4 6.437376 0 0
9:52 pm 21:52 Cloudy 57 13.9 55 12.8 93 93 SSW 7 11 29.62 1003 7 11.265408 0 0
9:54 pm 21:54 Mostly Cloudy 57 13.9 55 12.8 93 93 S 7 11 29.62 1003 7 11.265408 0 0
10:27 pm 22:27 Cloudy with Mist and Fog 56 13.3 54 12.2 93 93 S 7 11 29.62 1003 2 3.218688 0 0
10:32 pm 22:32 Cloudy with Mist and Fog 56 13.3 54 12.2 93 93 S 6 9 29.62 1003 1.75 2.816352 0 0
10:35 pm 22:35 Cloudy with Mist and Fog 56 13.3 54 12.2 93 93 SSW 6 9 29.62 1003 2.5 4.02336 0 0
10:52 pm 22:52 Cloudy with Mist and Fog 58 14.4 56 13.3 93 93 SW 8 13 29.62 1003 2.5 4.02336 0 0
11:52 pm 23:52 Cloudy with Mist and Fog 58 14.4 55 12.8 90 90 SSW 10 17 29.62 1003 2.5 4.02336 0 0

Powered by AerisWeather